Location: Dal�� Lhota
(48.7500°N, 14.0167°E)
Time: 18:44:59
(UTC+00:00)

Explorer 7 - Visible Passes

Search period start: 27 July 2021 00:00
Search period end: 06 August 2021 00:00
Orbit: 484 x 676 km, 50.3° (Epoch: 27 July)

Date Brightness Start Highest point End Pass type
(mag) Time Alt. Az. Time Alt. Az. Time Alt. Az.
03 Aug 9.2 02:09:38 10° SE 02:10:24 10° SE 02:11:10 10° ESE visible
04 Aug 8.7 02:12:09 11° S 02:14:26 16° SE 02:16:53 10° E visible
05 Aug 8.2 02:16:17 15° S 02:18:31 24° SE 02:21:40 10° E visible
